Change the Weather History Date:

Monday, August 26, 2013

  Actual Average (KABQ) Record (KABQ)
Temperature  
Mean Temperature 67 °F 75 °F  
Max Temperature 83 °F 86 °F 96 °F (1936)
Min Temperature 51 °F 64 °F 46 °F (1918)
Degree Days  
Heating Degree Days 0 0  
Month to date heating degree days 0  
Since 1 June heating degree days 4  
Since 1 July heating degree days 0  
Cooling Degree Days 2 10  
Month to date cooling degree days 297  
Year to date cooling degree days 1108  
Since 1 June cooling degree days 1010  
Growing Degree Days 17 (Base 50)    
Moisture  
Dew Point 49 °F    
Average Humidity 53    
Maximum Humidity 91    
Minimum Humidity 27    
Precipitation  
Precipitation 0.00 in 0.04 in 0.76 in (1934)
Month to date precipitation 1.37  
Year to date precipitation 6.07  
Snow  
Snow 0.00 in - - ()
Month to date snowfall  
Since 1 June snowfall  
Since 1 July snowfall  
Snow Depth -    
Sea Level Pressure  
Sea Level Pressure 30.36 in    
Wind  
Wind Speed 5 mph (SSE)    
Max Wind Speed 18 mph    
Max Gust Speed 22 mph    
Visibility 10 miles    
Events      
T = Trace of Precipitation, MM = Missing Value Source: NWS Daily Summary

Daily Weather History Graph

Daily Weather History Graph

Search for Another Location

Airport or City:

Trip Planner

Search our weather history database for the weather conditions in past years. The results will help you decide how hot, cold, wet, or windy it might be!

Date:

Astronomy

Aug. 26, 2013 Rise Set
Actual Time 6:32 AM MDT 7:38 PM MDT
Civil Twilight 6:06 AM MDT 8:04 PM MDT
Nautical Twilight 5:35 AM MDT 8:35 PM MDT
Astronomical Twilight 5:03 AM MDT 9:07 PM MDT
Moon 11:07 PM MDT (8/26) 12:20 PM MDT (8/26)
Length of Visible Light 13h 57m
Length of Day
13h 05m
Waning Gibbous, 66% of the Moon is Illuminated
Aug 26
Waning Gibbous
Aug 28
Last Quarter
Sep 5
New
Sep 12
First Quarter
Sep 19
Full

Hourly Weather History & Observations

Time (MDT) Temp. Dew Point Humidity Pressure Visibility Wind Dir Wind Speed Gust Speed Precip Events Conditions
12:15 AM 66.2 °F 52.7 °F 62% 30.38 in 10.0 mi Calm Calm - N/A   Mostly Cloudy
12:35 AM 65.3 °F 52.2 °F 62% 30.39 in 10.0 mi Calm Calm - N/A   Mostly Cloudy
12:55 AM 64.9 °F 51.4 °F 62% 30.39 in 10.0 mi SSW 5.8 mph - N/A   Mostly Cloudy
1:15 AM 63.0 °F 52.5 °F 69% 30.39 in 10.0 mi SSW 6.9 mph - N/A   Scattered Clouds
1:35 AM 61.0 °F 52.7 °F 74% 30.39 in 10.0 mi South 4.6 mph - N/A   Clear
1:55 AM 59.4 °F 52.7 °F 79% 30.39 in 10.0 mi SSE 4.6 mph - N/A   Clear
2:15 AM 59.2 °F 52.0 °F 77% 30.38 in 10.0 mi SSE 3.5 mph - N/A   Clear
2:35 AM 57.9 °F 51.3 °F 78% 30.38 in 10.0 mi Calm Calm - N/A   Clear
2:55 AM 58.3 °F 50.9 °F 76% 30.38 in 10.0 mi SE 4.6 mph - N/A   Clear
3:15 AM 58.5 °F 50.5 °F 75% 30.38 in 10.0 mi Calm Calm - N/A   Clear
3:35 AM 56.3 °F 49.5 °F 78% 30.37 in 10.0 mi ESE 4.6 mph - N/A   Clear
3:55 AM 57.0 °F 50.0 °F 77% 30.37 in 10.0 mi ESE 4.6 mph - N/A   Clear
4:15 AM 57.6 °F 50.9 °F 78% 30.37 in 10.0 mi SW 3.5 mph - N/A   Clear
4:35 AM 56.1 °F 51.1 °F 83% 30.38 in 10.0 mi WNW 4.6 mph - N/A   Clear
4:55 AM 55.0 °F 50.9 °F 86% 30.38 in 10.0 mi NW 4.6 mph - N/A   Clear
5:15 AM 53.6 °F 50.0 °F 88% 30.38 in 10.0 mi Calm Calm - N/A   Clear
5:35 AM 54.3 °F 50.0 °F 85% 30.38 in 10.0 mi Calm Calm - N/A   Clear
5:55 AM 54.5 °F 50.7 °F 87% 30.39 in 10.0 mi Calm Calm - N/A   Clear
6:15 AM 51.4 °F 48.2 °F 89% 30.39 in 10.0 mi Calm Calm - N/A   Clear
6:35 AM 52.2 °F 49.1 °F 89% 30.40 in 10.0 mi Calm Calm - N/A   Clear
6:55 AM 51.3 °F 48.6 °F 90% 30.40 in 10.0 mi NW 5.8 mph - N/A   Clear
7:15 AM 53.2 °F 50.5 °F 91% 30.40 in 10.0 mi Calm Calm - N/A   Clear
7:35 AM 55.9 °F 52.3 °F 88% 30.40 in 10.0 mi NNW 3.5 mph - N/A   Clear
7:55 AM 58.8 °F 53.2 °F 82% 30.41 in 10.0 mi NNW 4.6 mph - N/A   Clear
8:15 AM 60.6 °F 53.6 °F 78% 30.41 in 10.0 mi NW 4.6 mph - N/A   Clear
8:35 AM 62.8 °F 53.2 °F 71% 30.41 in 10.0 mi Calm Calm - N/A   Clear
8:55 AM 64.6 °F 53.2 °F 67% 30.41 in 10.0 mi Calm Calm - N/A   Clear
9:15 AM 67.1 °F 53.1 °F 61% 30.41 in 10.0 mi Calm Calm - N/A   Clear
9:35 AM 69.1 °F 52.9 °F 56% 30.41 in 10.0 mi Calm Calm - N/A   Clear
9:55 AM 71.2 °F 52.7 °F 52% 30.41 in 10.0 mi Calm Calm - N/A   Clear
10:15 AM 73.8 °F 51.6 °F 46% 30.41 in 10.0 mi Calm Calm - N/A   Clear
10:35 AM 74.3 °F 50.7 °F 43% 30.41 in 10.0 mi Calm Calm - N/A   Clear
10:55 AM 75.6 °F 50.2 °F 41% 30.41 in 10.0 mi Calm Calm - N/A   Clear
11:15 AM 76.5 °F 49.5 °F 39% 30.40 in 10.0 mi Calm Calm - N/A   Clear
11:35 AM 78.3 °F 49.3 °F 36% 30.40 in 10.0 mi South 8.1 mph - N/A   Clear
11:55 AM 79.5 °F 48.7 °F 34% 30.39 in 10.0 mi South 5.8 mph - N/A   Clear
12:15 PM 78.6 °F 48.7 °F 35% 30.38 in 10.0 mi SE 5.8 mph - N/A   Clear
12:35 PM 80.6 °F 47.8 °F 32% 30.37 in 10.0 mi South 9.2 mph - N/A   Clear
12:55 PM 81.3 °F 47.8 °F 31% 30.37 in 10.0 mi SSW 5.8 mph - N/A   Clear
1:15 PM 81.7 °F 47.7 °F 30% 30.36 in 10.0 mi South 10.4 mph - N/A   Clear
1:35 PM 82.6 °F 48.7 °F 31% 30.35 in 10.0 mi South 11.5 mph - N/A   Clear
1:55 PM 82.8 °F 48.4 °F 30% 30.35 in 10.0 mi SSE 6.9 mph 18.4 mph N/A   Clear
2:15 PM 83.5 °F 48.7 °F 30% 30.34 in 10.0 mi South 11.5 mph 19.6 mph N/A   Clear
2:35 PM 83.1 °F 48.9 °F 30% 30.34 in 10.0 mi SSE 13.8 mph - N/A   Scattered Clouds
2:55 PM 83.5 °F 48.7 °F 30% 30.33 in 10.0 mi South 16.1 mph 19.6 mph N/A   Scattered Clouds
3:15 PM 83.3 °F 49.1 °F 30% 30.33 in 10.0 mi SSE 12.7 mph 19.6 mph N/A   Scattered Clouds
3:35 PM 82.8 °F 48.6 °F 30% 30.32 in 10.0 mi South 10.4 mph 17.3 mph N/A   Clear
3:55 PM 82.0 °F 47.3 °F 30% 30.31 in 10.0 mi South 15.0 mph 19.6 mph N/A   Clear
4:15 PM 83.3 °F 46.2 °F 27% 30.31 in 10.0 mi South 13.8 mph 21.9 mph N/A   Clear
4:35 PM 82.6 °F 45.7 °F 27% 30.31 in 10.0 mi South 12.7 mph 18.4 mph N/A   Clear
4:55 PM 82.8 °F 45.7 °F 27% 30.29 in 10.0 mi South 12.7 mph 17.3 mph N/A   Clear
5:15 PM 82.8 °F 46.0 °F 28% 30.29 in 10.0 mi South 16.1 mph 21.9 mph N/A   Clear
5:35 PM 82.4 °F 45.9 °F 28% 30.29 in 10.0 mi SSE 13.8 mph - N/A   Clear
5:55 PM 81.5 °F 45.3 °F 28% 30.29 in 10.0 mi SE 16.1 mph - N/A   Clear
6:15 PM 81.0 °F 44.6 °F 28% 30.28 in 10.0 mi SSE 18.4 mph - N/A   Clear
6:35 PM 79.9 °F 44.8 °F 29% 30.28 in 10.0 mi SSE 18.4 mph - N/A   Clear
6:55 PM 78.8 °F 45.3 °F 31% 30.29 in 10.0 mi SSE 15.0 mph - N/A   Clear
7:15 PM 77.2 °F 45.1 °F 32% 30.29 in 10.0 mi SE 11.5 mph - N/A   Clear
7:35 PM 75.2 °F 45.0 °F 34% 30.29 in 10.0 mi SE 10.4 mph - N/A   Clear
7:55 PM 73.4 °F 44.6 °F 36% 30.29 in 10.0 mi SE 9.2 mph - N/A   Clear
8:15 PM 72.1 °F 44.6 °F 37% 30.30 in 10.0 mi SE 9.2 mph - N/A   Clear
8:35 PM 71.1 °F 44.1 °F 38% 30.31 in 10.0 mi SE 10.4 mph - N/A   Clear
8:55 PM 70.7 °F 43.3 °F 37% 30.31 in 10.0 mi SE 11.5 mph - N/A   Clear
9:15 PM 69.1 °F 43.2 °F 39% 30.31 in 10.0 mi SE 10.4 mph - N/A   Clear
9:35 PM 68.2 °F 43.7 °F 41% 30.32 in 10.0 mi SE 10.4 mph - N/A   Clear
9:55 PM 68.9 °F 44.8 °F 42% 30.32 in 10.0 mi SE 12.7 mph - N/A   Clear
10:15 PM 68.0 °F 45.3 °F 44% 30.33 in 10.0 mi SE 12.7 mph - N/A   Clear
10:35 PM 67.5 °F 47.3 °F 48% 30.34 in 10.0 mi SE 11.5 mph - N/A   Clear
10:55 PM 66.6 °F 48.2 °F 52% 30.34 in 10.0 mi SE 10.4 mph - N/A   Clear
11:15 PM 63.5 °F 48.4 °F 58% 30.34 in 10.0 mi South 8.1 mph - N/A   Clear
11:35 PM 62.6 °F 48.0 °F 59% 30.34 in 10.0 mi South 6.9 mph - N/A   Clear
11:55 PM 61.3 °F 48.2 °F 62% 30.34 in 10.0 mi WSW 4.6 mph - N/A   Clear